When you browse on this site, cookies collect data to enhance your experience and personalize the content and advertising you see.
Visit our Privacy Policy to learn more. By continuing to use the site, you agree to this use of cookies and data.
  • In Czech Republic
  • List of Countries
  • For 7 days
  • Water Temperature
  • Satellite Maps
  • Weather Map
  • Weather Widgets
  • user-avatar
    Login

    Hourly Weather Cancún

    Today, 18 June, Tuesday

    Time Temperature Precipitation Wind Pressure Humidity
    00:00 +28°C° 0 mm 4 mps 760 mmHg 90%
    01:00 +28°C° 0.1 mm 4 mps 759 mmHg 91%
    02:00 +28°C° 0.1 mm 4 mps 759 mmHg 93%
    03:00 +27°C° 0.1 mm 4 mps 759 mmHg 94%
    04:00 +28°C° 0.3 mm 4 mps 759 mmHg 92%
    05:00 +28°C° 0.3 mm 4 mps 760 mmHg 89%
    06:00 +28°C° 0.3 mm 4 mps 760 mmHg 87%
    07:00 +30°C° 0.2 mm 4 mps 760 mmHg 78%
    08:00 +33°C° 0.2 mm 5 mps 760 mmHg 68%
    09:00 +35°C° 0.2 mm 5 mps 760 mmHg 59%
    10:00 +36°C° 0.1 mm 5 mps 760 mmHg 56%
    11:00 +37°C° 0.1 mm 5 mps 760 mmHg 52%
    12:00 +38°C° 0.1 mm 6 mps 760 mmHg 49%
    13:00 +37°C° 0.2 mm 5 mps 760 mmHg 50%
    14:00 +37°C° 0.2 mm 5 mps 759 mmHg 52%
    15:00 +36°C° 0.2 mm 5 mps 759 mmHg 53%
    16:00 +35°C° 0 mm 5 mps 759 mmHg 58%
    17:00 +33°C° 0 mm 5 mps 759 mmHg 63%
    18:00 +32°C° 0 mm 4 mps 759 mmHg 68%
    19:00 +30°C° 0 mm 4 mps 759 mmHg 74%
    20:00 +29°C° 0 mm 4 mps 760 mmHg 81%
    21:00 +28°C° 0 mm 4 mps 760 mmHg 88%
    22:00 +28°C° 0 mm 4 mps 760 mmHg 88%
    23:00 +28°C° 0 mm 4 mps 760 mmHg 89%

    Tomorrow, 19 June, Wednesday

    Time Temperature Precipitation Wind Pressure Humidity
    00:00 +28°C° 0 mm 4 mps 760 mmHg 89%
    01:00 +28°C° 0 mm 4 mps 760 mmHg 89%
    02:00 +28°C° 0 mm 4 mps 759 mmHg 89%
    03:00 +28°C° 0 mm 4 mps 759 mmHg 89%
    04:00 +28°C° 0 mm 4 mps 759 mmHg 87%
    05:00 +28°C° 0 mm 4 mps 759 mmHg 85%
    06:00 +29°C° 0 mm 3 mps 760 mmHg 83%
    07:00 +32°C° 0 mm 4 mps 760 mmHg 74%
    08:00 +33°C° 0 mm 4 mps 760 mmHg 65%
    09:00 +35°C° 0 mm 4 mps 760 mmHg 56%
    10:00 +36°C° 0 mm 5 mps 760 mmHg 54%
    11:00 +36°C° 0 mm 5 mps 760 mmHg 52%
    12:00 +37°C° 0 mm 5 mps 759 mmHg 49%
    13:00 +37°C° 0 mm 5 mps 759 mmHg 49%
    14:00 +36°C° 0 mm 5 mps 759 mmHg 48%
    15:00 +36°C° 0 mm 5 mps 758 mmHg 48%
    16:00 +35°C° 0 mm 5 mps 758 mmHg 54%
    17:00 +33°C° 0 mm 4 mps 758 mmHg 61%
    18:00 +32°C° 0 mm 4 mps 758 mmHg 68%
    19:00 +30°C° 0 mm 4 mps 759 mmHg 75%
    20:00 +29°C° 0 mm 4 mps 759 mmHg 83%
    21:00 +28°C° 0 mm 3 mps 760 mmHg 90%
    22:00 +28°C° 0 mm 4 mps 760 mmHg 89%
    23:00 +28°C° 0 mm 4 mps 760 mmHg 87%

    Day after tomorrow, 20 June, Thursday

    Time Temperature Precipitation Wind Pressure Humidity
    00:00 +28°C° 0 mm 4 mps 760 mmHg 86%
    01:00 +28°C° 0 mm 4 mps 760 mmHg 86%
    02:00 +28°C° 0 mm 4 mps 759 mmHg 86%
    03:00 +28°C° 0 mm 5 mps 759 mmHg 86%
    04:00 +28°C° 0 mm 4 mps 759 mmHg 84%
    05:00 +28°C° 0 mm 4 mps 759 mmHg 83%
    06:00 +29°C° 0 mm 4 mps 759 mmHg 82%
    07:00 +32°C° 0 mm 4 mps 760 mmHg 72%
    08:00 +33°C° 0 mm 4 mps 760 mmHg 62%
    09:00 +35°C° 0 mm 4 mps 760 mmHg 53%
    10:00 +36°C° 0 mm 4 mps 760 mmHg 52%
    11:00 +36°C° 0 mm 4 mps 760 mmHg 50%
    12:00 +37°C° 0 mm 5 mps 760 mmHg 49%
    13:00 +37°C° 0 mm 5 mps 759 mmHg 51%
    14:00 +36°C° 0 mm 5 mps 759 mmHg 53%
    15:00 +36°C° 0 mm 5 mps 759 mmHg 55%
    16:00 +35°C° 0 mm 5 mps 759 mmHg 60%
    17:00 +34°C° 0 mm 5 mps 759 mmHg 65%
    18:00 +32°C° 0 mm 5 mps 759 mmHg 70%
    19:00 +30°C° 0 mm 4 mps 760 mmHg 75%
    20:00 +30°C° 0 mm 4 mps 760 mmHg 80%
    21:00 +29°C° 0 mm 4 mps 760 mmHg 84%
    22:00 +29°C° 0 mm 4 mps 760 mmHg 86%
    23:00 +28°C° 0 mm 4 mps 760 mmHg 87%

    21 June, Friday

    Time Temperature Precipitation Wind Pressure Humidity
    00:00 +28°C° 0 mm 4 mps 760 mmHg 89%
    01:00 +28°C° 0 mm 4 mps 760 mmHg 90%
    02:00 +28°C° 0 mm 4 mps 760 mmHg 91%
    03:00 +28°C° 0 mm 4 mps 759 mmHg 91%
    04:00 +28°C° 0 mm 3 mps 760 mmHg 90%
    05:00 +28°C° 0 mm 3 mps 760 mmHg 88%
    06:00 +29°C° 0 mm 3 mps 760 mmHg 86%
    07:00 +32°C° 0 mm 4 mps 761 mmHg 75%
    08:00 +33°C° 0 mm 4 mps 761 mmHg 65%
    09:00 +35°C° 0 mm 5 mps 761 mmHg 54%
    10:00 +36°C° 0 mm 5 mps 761 mmHg 52%
    11:00 +37°C° 0 mm 4 mps 761 mmHg 50%
    12:00 +37°C° 0 mm 4 mps 761 mmHg 49%
    13:00 +37°C° 0 mm 4 mps 760 mmHg 49%
    14:00 +36°C° 0 mm 5 mps 760 mmHg 50%
    15:00 +36°C° 0 mm 5 mps 760 mmHg 51%
    16:00 +35°C° 0 mm 4 mps 760 mmHg 57%
    17:00 +34°C° 0 mm 4 mps 760 mmHg 63%
    18:00 +32°C° 0 mm 4 mps 760 mmHg 69%
    19:00 +30°C° 0 mm 4 mps 760 mmHg 75%
    20:00 +29°C° 0 mm 4 mps 761 mmHg 80%
    21:00 +29°C° 0 mm 4 mps 762 mmHg 86%
    22:00 +29°C° 0 mm 4 mps 761 mmHg 86%
    23:00 +29°C° 0 mm 4 mps 761 mmHg 86%

    22 June, Saturday

    Time Temperature Precipitation Wind Pressure Humidity
    00:00 +29°C° 0 mm 4 mps 761 mmHg 86%
    01:00 +28°C° 0.4 mm 4 mps 761 mmHg 88%
    02:00 +28°C° 0.4 mm 4 mps 760 mmHg 91%
    03:00 +27°C° 0.4 mm 4 mps 760 mmHg 93%
    04:00 +28°C° 1.6 mm 4 mps 760 mmHg 93%
    05:00 +28°C° 1.6 mm 5 mps 760 mmHg 92%
    06:00 +28°C° 1.6 mm 5 mps 761 mmHg 92%
    07:00 +29°C° 0.9 mm 5 mps 761 mmHg 86%
    08:00 +32°C° 0.9 mm 5 mps 761 mmHg 80%
    09:00 +33°C° 0.9 mm 5 mps 762 mmHg 74%
    10:00 +34°C° 0.1 mm 5 mps 761 mmHg 67%
    11:00 +35°C° 0.1 mm 5 mps 761 mmHg 61%
    12:00 +37°C° 0.1 mm 5 mps 761 mmHg 54%
    13:00 +36°C° 0.2 mm 5 mps 761 mmHg 55%
    14:00 +36°C° 0.2 mm 5 mps 761 mmHg 55%
    15:00 +36°C° 0.2 mm 5 mps 760 mmHg 56%
    16:00 +35°C° 0 mm 5 mps 761 mmHg 60%
    17:00 +33°C° 0 mm 5 mps 761 mmHg 64%
    18:00 +32°C° 0 mm 5 mps 761 mmHg 68%
    19:00 +30°C° 0 mm 4 mps 761 mmHg 74%
    20:00 +29°C° 0 mm 4 mps 761 mmHg 80%
    21:00 +29°C° 0 mm 4 mps 762 mmHg 86%
    22:00 +29°C° 0 mm 4 mps 761 mmHg 87%
    23:00 +28°C° 0 mm 4 mps 761 mmHg 88%

    23 June, Sunday

    Time Temperature Precipitation Wind Pressure Humidity
    00:00 +28°C° 0 mm 4 mps 761 mmHg 89%
    01:00 +28°C° 0 mm 4 mps 761 mmHg 91%
    02:00 +28°C° 0 mm 4 mps 760 mmHg 92%
    03:00 +28°C° 0 mm 4 mps 760 mmHg 93%
    04:00 +28°C° 0 mm 4 mps 760 mmHg 91%
    05:00 +28°C° 0 mm 3 mps 761 mmHg 89%
    06:00 +28°C° 0 mm 3 mps 761 mmHg 88%
    07:00 +30°C° 0 mm 4 mps 761 mmHg 77%
    08:00 +33°C° 0 mm 4 mps 761 mmHg 65%
    09:00 +35°C° 0 mm 5 mps 762 mmHg 54%
    10:00 +36°C° 0 mm 5 mps 762 mmHg 52%
    11:00 +36°C° 0 mm 5 mps 762 mmHg 50%
    12:00 +37°C° 0 mm 5 mps 761 mmHg 48%
    13:00 +37°C° 0 mm 4 mps 761 mmHg 48%
    14:00 +37°C° 0 mm 4 mps 761 mmHg 49%
    15:00 +36°C° 0 mm 4 mps 760 mmHg 49%
    16:00 +35°C° 0 mm 4 mps 760 mmHg 56%
    17:00 +33°C° 0 mm 3 mps 760 mmHg 63%
    18:00 +31°C° 0 mm 3 mps 760 mmHg 71%
    19:00 +30°C° 0 mm 3 mps 761 mmHg 79%
    20:00 +28°C° 0 mm 3 mps 761 mmHg 87%
    21:00 +27°C° 0 mm 2 mps 761 mmHg 95%
    22:00 +27°C° 0 mm 2 mps 761 mmHg 96%
    23:00 +27°C° 0 mm 2 mps 761 mmHg 96%
    Show more